Location: Blue Sky Observatory
(43.1153°N, 70.9036°W)
Time: 12:01:09
(UTC-05:00)

Daily predictions for brighter satellites

Satellite Brightness Start Highest point End
(mag) Time Altitude Azimuth Time Altitude Azimuth Time Altitude Azimuth
Cosmos 1484 Rocket 3.3 16:36:44 10° SE 16:40:30 41° ENE 16:44:18 10° N
YAOGAN 1 3.7 16:38:00 10° ESE 16:41:20 22° ENE 16:44:42 10° NNE
Meteor 1-4 Rocket 2.9 16:37:56 10° NNW 16:41:37 73° W 16:45:12 10° S
Cosmos 990 Rocket 4.3 16:37:06 10° S 16:42:01 49° ESE 16:47:00 10° NNE
Cosmos 2279 Rocket 4.3 16:36:42 10° SSE 16:42:36 45° E 16:48:30 10° NNE
ISS -2.8 16:40:41 10° NW 16:43:40 30° NNE 16:46:38 10° E
Cosmos 2297 Rocket 3.2 16:40:32 10° N 16:45:01 23° NE 16:49:28 10° ESE
Abrixas rocket 2.3 16:42:26 10° SW 16:45:39 66° SSE 16:48:53 10° ENE
ERS-2 3.9 16:44:54 10° E 16:46:38 13° ENE 16:48:24 10° NE
Cosmos 1943 Rocket 3.7 16:43:13 10° WSW 16:48:15 33° NW 16:53:20 10° N
CZ-4 R/B 2.0 16:45:08 10° SE 16:48:35 32° ENE 16:52:07 10° N
Meteor 1-18 Rocket 4.2 16:43:32 10° S 16:49:03 72° E 16:54:42 10° NNE
COSMO-SKYMED 1 4.0 16:50:52 10° NE 16:53:57 19° E 16:57:01 10° SE
ATLAS 2AS CENTAUR R/B 3.3 16:47:47 10° SSW 16:55:15 56° ESE 17:03:08 10° NE
Cosmos 1812 3.9 16:53:20 10° SSW 16:57:03 45° WNW 17:00:48 10° N
SJ-12 4.4 16:53:47 10° S 16:57:52 66° W 17:01:59 10° NNW
Cosmos 2150 Rocket 4.2 16:53:00 10° S 16:58:22 63° ESE 17:03:46 10° NNE
NOSS 2-3 (E) 4.0 16:53:59 10° SW 16:58:37 79° NW 17:04:07 10° NE
Cosmos 1666 3.2 16:58:33 10° N 17:02:03 36° ENE 17:05:31 10° SE
ATLAS 3B R/B 2.9 16:55:56 10° NNW 17:02:21 45° NE 17:08:34 10° ESE
Cosmos 1975 Rocket 3.1 17:00:01 10° S 17:04:28 82° E 17:08:59 10° N
SJ-7 4.3 17:00:38 10° SSE 17:04:38 85° ENE 17:08:39 10° NNW
IRAS Rocket 4.3 17:01:20 10° SSE 17:06:49 86° WSW 17:12:20 10° NNW
SJ 16-02 2.8 17:06:07 10° SE 17:09:12 19° E 17:10:58 15° ENE
BREEZE-M DEB (TANK) 3.3 17:09:13 10° WNW 17:11:19 31° N 17:13:51 16° NE
USA 215 3.9 17:05:31 10° SE 17:11:58 61° SW 17:18:26 10° NW
SPOT 3 Rocket 4.3 17:07:45 10° SE 17:12:11 29° ENE 17:16:36 10° N
CSL-04 Debris 4.2 17:09:15 10° SSE 17:14:38 85° WSW 17:20:04 10° NNW
Cosmos 158 Rocket 4.4 17:10:14 10° N 17:15:00 37° ENE 17:19:37 10° SE
Hubble Space Telescope 3.5 17:18:39 10° S 17:19:26 10° S 17:20:13 10° SSE
Meteor 1-19 Rocket 4.3 17:14:09 10° S 17:19:40 59° E 17:25:20 10° NNE
USA 161 4.4 17:19:33 10° NNW 17:21:31 17° WNW 17:23:32 10° WSW
Cosmos 1655 Rocket 4.2 17:21:23 10° N 17:27:47 82° W 17:34:11 10° S
Cosmos 1536 Rocket 3.7 17:28:27 10° SSE 17:32:39 49° E 17:36:25 13° NNE
EO 1 Del DPAF 3.8 17:32:40 24° NE 17:34:21 37° E 17:37:54 10° SSE
Meteor 1-28 Rocket 3.5 17:31:26 10° N 17:35:09 66° WNW 17:38:54 10° SSW
MOS 1 4.3 17:30:58 10° SSE 17:36:32 61° ENE 17:42:09 10° N
FENGYUN 3A 3.8 17:34:20 10° SE 17:39:29 49° ENE 17:44:39 10° N
Cosmos 1743 3.2 17:36:13 10° NNW 17:40:04 63° W 17:43:54 10° S
Ariane Rocket 4.0 17:35:13 10° S 17:40:07 50° W 17:45:03 10° NNW
Cosmos 1269 Rocket 4.4 17:35:50 10° N 17:40:50 40° ENE 17:45:49 10° SE
SKYMED 2 3.6 17:38:35 14° NNE 17:42:18 60° E 17:46:35 10° S
Cosmos 2266 Rocket 3.9 17:36:35 10° N 17:42:37 64° E 17:48:42 10° SSE
Cosmos 1697 Rocket 3.5 17:38:37 10° SSE 17:43:20 28° ESE 17:44:23 26° E
Cosmos 389 Rocket 3.8 17:40:55 10° NNW 17:44:14 41° W 17:47:30 10° SSW
CENTAUR R/B 4.0 17:38:39 10° NNW 17:44:59 27° NNE 17:47:34 23° ENE
CZ-2C R/B 3.9 17:41:17 10° N 17:45:57 75° WNW 17:50:39 10° SSW
Cosmos 2082 3.6 17:42:31 10° NNW 17:48:05 61° ENE 17:53:39 10° SE
METEOR-M 4.1 17:42:49 10° SSE 17:48:09 88° WSW 17:53:33 10° NNW
NOAA 12 4.1 17:43:47 10° SSE 17:48:57 58° ENE 17:54:06 10° N
Cosmos 1125 Rocket 3.6 17:45:09 10° S 17:50:19 57° ESE 17:53:17 25° NE
Atlas Centaur 2 3.9 17:53:12 10° SW 17:56:08 16° S 17:58:45 10° SSE
Cosmos 724 4.2 17:51:15 10° NNW 17:57:01 64° NE 18:02:10 13° SE
Cosmos 1048 Rocket 3.9 17:53:39 10° NNW 17:59:03 70° ENE 18:04:24 10° SSE
Landsat 4 4.1 17:58:14 17° N 18:01:07 64° WNW 18:04:54 10° SSW
Meteor 1-23 Rocket 4.2 17:56:11 10° S 18:01:52 63° E 18:06:17 17° NNE
ALOS 2.1 17:57:18 10° SSE 18:01:58 80° ENE 18:06:39 10° N
Cosmos 2227 Rocket 2.2 17:56:39 10° NNW 18:02:21 84° WSW 18:07:59 10° SSE
USA 238 DEB 3.8 17:55:20 10° NW 18:02:28 84° WSW 18:09:40 10° SSE
USA 238 3.8 17:55:26 10° NW 18:02:34 84° WSW 18:09:47 10° SSE
MINOTAUR IV R/B 4.5 17:59:53 10° NNW 18:04:21 61° ENE 18:05:57 37° SE
DELTA 2 R/B (1) 3.8 17:58:56 10° WSW 18:04:24 60° S 18:06:33 36° ESE
Cosmos 1455 Rocket 4.5 18:05:33 10° NNW 18:09:40 39° W 18:13:45 10° SSW
Meteor 2-9 Rocket 4.5 18:07:18 10° NNW 18:12:48 66° W 18:18:08 10° S
YAOGAN 1 4.2 18:13:16 10° SSW 18:17:14 35° W 18:21:14 10° NNW
ERS-2 3.1 18:16:23 10° S 18:19:54 47° W 18:23:28 10° NNW
ISS -2.8 18:17:04 10° WNW 18:19:54 45° WSW 18:19:54 45° WSW
Cosmos 372 Rocket 4.0 18:15:55 10° SSW 18:21:09 82° WNW 18:23:18 36° NNE
Abrixas rocket 3.9 18:19:20 10° W 18:21:25 29° NW 18:21:25 29° NW
BREEZE-M DEB (TANK) 3.7 18:19:33 10° WNW 18:22:41 75° NNE 18:23:32 59° E
Cosmos 1980 Rocket 3.3 18:17:44 10° SSE 18:20:55 27° SE 18:20:55 27° SE
CZ-4 R/B 4.1 18:20:57 10° SW 18:23:43 19° W 18:26:31 10° NW
Gblst 52 Del rocket 4.4 18:20:17 10° NW 18:25:53 57° NNE 18:26:35 54° NE
Cosmos 2297 Rocket 2.7 18:23:55 10° NNW 18:29:29 60° WSW 18:35:02 10° S
COSMO-SKYMED 1 3.8 18:27:10 16° N 18:30:16 41° WNW 18:34:20 10° SW
NOSS 3-2 (A) 3.9 18:25:48 10° NW 18:33:22 90° NE 18:40:03 17° SE
NOSS 3-2 (C) 3.9 18:31:27 10° NW 18:39:00 78° NE 18:42:30 38° SE
ATLAS 2AS CENTAUR R/B 3.9 18:39:07 10° WSW 18:46:34 44° NW 18:51:14 23° NNE
SJ 16-02 2.5 18:43:21 10° SW 18:47:28 40° WNW 18:48:01 38° NW
Cosmos 1656 4.2 18:46:33 10° SW 18:52:01 55° WNW 18:53:14 46° NNW
ATLAS 3B R/B 3.8 18:46:51 10° NW 18:52:56 40° WSW 18:58:53 10° S
Cosmos 1241 Rocket 4.4 18:52:38 10° SSW 18:59:02 86° WNW 18:59:03 86° NW
NOSS 3-4 (A) 3.5 19:00:52 10° SW 19:06:29 74° SW 19:06:29 74° SW
NOSS 3-4 (C) 3.5 19:00:58 10° SW 19:06:32 73° SW 19:06:32 73° SW
Gbstr 26 Del rocket 4.2 19:02:58 10° SW 19:10:44 87° WSW 19:10:44 87° WSW
Cosmos 1697 Rocket 3.8 19:21:40 10° SW 19:26:10 41° W 19:26:10 41° W
CENTAUR R/B 3.5 19:29:00 10° NW 19:34:48 54° NNW 19:34:48 54° NNW
